QPF
0.00 0.00 0.00 0.00 0.03 0.07 0.06 0.01 0.00 0.00 0.00 0.00 0.00 0.00 0.00 0.01 0.05 0.19 0.07 0.02 0.01 0.00 0.00 0.00 0.00 0.01 0.01 0.02 0.02 0.02 0.02 0.02 0.01 0.01 0.00 0.00 0.01 0.01 0.01 0.01 0.01 0.01 0.01 0.01 0.01 0.01 0.01 0.01 0.01
0.00 0.00 0.00 0.00 0.03 0.04 0.01 0.00 0.00 0.00 0.00 0.00 0.00 0.00 0.00 0.00 0.01 0.03 0.03 0.02 0.00 0.00 0.00 0.00 0.00 0.01 0.01 0.01 0.02 0.02 0.02 0.01 0.01 0.00 0.00 0.00 0.01 0.01 0.01 0.01 0.01 0.01 0.01 0.01 0.01 0.01 0.01 0.00 0.01
0.00 0.00 0.00 0.01 0.01 0.01 0.00 0.00 0.00 0.00 0.00 0.00 0.00 0.00 0.02 0.03 0.01 0.00 0.01 0.01 0.00 0.00 0.00 0.00 0.00 0.01 0.01 0.01 0.02 0.02 0.02 0.01 0.01 0.00 0.00 0.00 0.01 0.01 0.01 0.01 0.01 0.01 0.01 0.01 0.01 0.01 0.01 0.00 0.01
0.00 0.00 0.00 0.01 0.01 0.00 0.00 0.00 0.00 0.00 0.00 0.00 0.00 0.01 0.01 0.02 0.01 0.00 0.00 0.00 0.00 0.00 0.00 0.00 0.00 0.00 0.01 0.01 0.02 0.02 0.01 0.01 0.01 0.00 0.00 0.00 0.00 0.01 0.01 0.01 0.01 0.00 0.01 0.01 0.00 0.00 0.00 0.00 0.00
0.00 0.00 0.01 0.02 0.01 0.00 0.00 0.00 0.00 0.00 0.02 0.02 0.00 0.01 0.02 0.01 0.00 0.00 0.00 0.00 0.00 0.00 0.00 0.00 0.00 0.00 0.01 0.01 0.02 0.02 0.01 0.01 0.01 0.01 0.00 0.00 0.00 0.01 0.01 0.01 0.01 0.00 0.01 0.00 0.00 0.00 0.00 0.00 0.00
0.00 0.00 0.00 0.00 0.00 0.00 0.00 0.00 0.00 0.00 0.04 0.02 0.01 0.01 0.03 0.01 0.00 0.00 0.00 0.00 0.00 0.00 0.00 0.00 0.00 0.00 0.01 0.01 0.02 0.02 0.02 0.01 0.01 0.01 0.00 0.00 0.00 0.00 0.01 0.00 0.00 0.00 0.01 0.00 0.00 0.00 0.00 0.00 0.00
0.00 0.00 0.00 0.00 0.00 0.00 0.00 0.00 0.00 0.02 0.08 0.07 0.02 0.02 0.04 0.02 0.01 0.00 0.00 0.00 0.00 0.00 0.00 0.00 0.00 0.01 0.01 0.01 0.02 0.02 0.02 0.01 0.01 0.01 0.01 0.01 0.00 0.00 0.00 0.00 0.00 0.00 0.00 0.00 0.00 0.00 0.01 0.00 0.00
0.00 0.00 0.00 0.00 0.00 0.00 0.00 0.00 0.00 0.00 0.04 0.04 0.01 0.03 0.11 0.04 0.02 0.01 0.01 0.01 0.01 0.01 0.00 0.01 0.01 0.02 0.02 0.01 0.01 0.02 0.01 0.01 0.01 0.01 0.00 0.00 0.01 0.01 0.01 0.01 0.01 0.00 0.01 0.00 0.00 0.01 0.00 0.00 0.00
0.00 0.00 0.00 0.00 0.00 0.00 0.00 0.00 0.00 0.00 0.01 0.00 0.00 0.02 0.12 0.04 0.02 0.03 0.03 0.03 0.03 0.02 0.01 0.01 0.02 0.02 0.03 0.03 0.01 0.01 0.01 0.01 0.01 0.02 0.01 0.03 0.10 0.12 0.10 0.05 0.01 0.01 0.01 0.01 0.01 0.01 0.00 0.00 0.00
0.00 0.00 0.00 0.00 0.00 0.00 0.00 0.00 0.00 0.00 0.00 0.01 0.01 0.01 0.03 0.02 0.04 0.07 0.08 0.06 0.04 0.06 0.03 0.03 0.03 0.03 0.03 0.04 0.02 0.04 0.04 0.03 0.07 0.09 0.06 0.11 0.15 0.15 0.14 0.09 0.04 0.02 0.02 0.02 0.02 0.01 0.01 0.02 0.04
0.00 0.00 0.00 0.00 0.00 0.00 0.00 0.00 0.00 0.00 0.00 0.01 0.03 0.02 0.02 0.05 0.09 0.11 0.12 0.11 0.06 0.03 0.03 0.03 0.03 0.04 0.03 0.07 0.06 0.07 0.09 0.09 0.10 0.09 0.08 0.12 0.10 0.08 0.10 0.12 0.11 0.10 0.08 0.10 0.09 0.05 0.06 0.06 0.07
0.00 0.00 0.00 0.00 0.00 0.00 0.00 0.00 0.00 0.00 0.00 0.00 0.02 0.03 0.04 0.08 0.12 0.13 0.11 0.09 0.09 0.06 0.05 0.05 0.07 0.06 0.06 0.06 0.08 0.07 0.07 0.09 0.12 0.10 0.06 0.08 0.08 0.09 0.10 0.11 0.11 0.11 0.11 0.11 0.09 0.08 0.07 0.06 0.04
0.00 0.00 0.00 0.00 0.00 0.00 0.00 0.00 0.00 0.00 0.01 0.01 0.02 0.02 0.07 0.09 0.12 0.13 0.14 0.14 0.13 0.12 0.09 0.09 0.09 0.08 0.09 0.10 0.10 0.08 0.08 0.08 0.10 0.09 0.05 0.05 0.06 0.08 0.08 0.07 0.06 0.05 0.05 0.05 0.04 0.03 0.03 0.03 0.03
0.00 0.00 0.00 0.00 0.00 0.00 0.00 0.00 0.00 0.02 0.02 0.01 0.01 0.01 0.05 0.14 0.14 0.15 0.14 0.14 0.16 0.15 0.13 0.11 0.10 0.09 0.08 0.09 0.11 0.10 0.06 0.07 0.09 0.05 0.04 0.03 0.05 0.06 0.05 0.03 0.04 0.04 0.03 0.02 0.02 0.01 0.02 0.03 0.03
0.00 0.00 0.00 0.01 0.00 0.00 0.00 0.01 0.01 0.01 0.00 0.00 0.00 0.01 0.02 0.08 0.15 0.21 0.21 0.19 0.17 0.15 0.15 0.13 0.11 0.10 0.09 0.11 0.09 0.05 0.03 0.03 0.04 0.05 0.04 0.03 0.04 0.04 0.03 0.03 0.03 0.03 0.03 0.02 0.01 0.02 0.02 0.02 0.02
0.00 0.00 0.00 0.01 0.00 0.00 0.00 0.01 0.01 0.00 0.00 0.01 0.01 0.01 0.04 0.08 0.13 0.20 0.27 0.26 0.24 0.17 0.16 0.14 0.09 0.11 0.12 0.11 0.10 0.05 0.04 0.04 0.04 0.04 0.05 0.03 0.02 0.02 0.02 0.02 0.02 0.02 0.02 0.01 0.01 0.01 0.02 0.01 0.02
0.00 0.00 0.00 0.00 0.00 0.00 0.00 0.01 0.01 0.00 0.01 0.01 0.01 0.02 0.05 0.09 0.12 0.11 0.15 0.21 0.23 0.19 0.16 0.15 0.14 0.15 0.13 0.11 0.11 0.07 0.06 0.06 0.05 0.05 0.05 0.03 0.02 0.02 0.01 0.01 0.01 0.01 0.01 0.00 0.00 0.01 0.01 0.01 0.01
0.00 0.00 0.00 0.00 0.00 0.00 0.00 0.00 0.00 0.00 0.01 0.01 0.01 0.02 0.04 0.09 0.14 0.10 0.11 0.16 0.18 0.17 0.16 0.16 0.15 0.15 0.13 0.12 0.10 0.07 0.05 0.04 0.03 0.03 0.03 0.02 0.02 0.01 0.01 0.01 0.00 0.00 0.00 0.00 0.00 0.00 0.00 0.00 0.00
0.00 0.00 0.00 0.00 0.00 0.00 0.00 0.00 0.00 0.00 0.00 0.01 0.01 0.02 0.05 0.08 0.09 0.08 0.08 0.13 0.12 0.14 0.15 0.14 0.14 0.13 0.12 0.11 0.10 0.07 0.05 0.03 0.04 0.03 0.01 0.01 0.01 0.01 0.00 0.00 0.00 0.00 0.00 0.00 0.00 0.00 0.00 0.00 0.00
0.00 0.00 0.00 0.00 0.00 0.00 0.00 0.01 0.00 0.00 0.00 0.00 0.00 0.02 0.03 0.06 0.08 0.08 0.07 0.09 0.08 0.11 0.13 0.13 0.13 0.11 0.10 0.09 0.09 0.08 0.07 0.05 0.04 0.03 0.01 0.01 0.01 0.00 0.00 0.00 0.00 0.00 0.00 0.00 0.00 0.00 0.00 0.00 0.00
0.00 0.00 0.00 0.00 0.00 0.00 0.00 0.02 0.01 0.00 0.00 0.00 0.00 0.01 0.01 0.02 0.06 0.09 0.08 0.08 0.08 0.10 0.10 0.09 0.11 0.11 0.10 0.09 0.08 0.07 0.08 0.06 0.04 0.03 0.02 0.01 0.00 0.00 0.00 0.00 0.00 0.00 0.00 0.01 0.01 0.00 0.00 0.00 0.00
0.00 0.00 0.00 0.00 0.00 0.00 0.00 0.02 0.02 0.02 0.01 0.01 0.00 0.00 0.01 0.01 0.03 0.05 0.05 0.07 0.07 0.09 0.10 0.09 0.10 0.09 0.09 0.08 0.07 0.06 0.05 0.05 0.04 0.02 0.01 0.00 0.00 0.00 0.00 0.00 0.00 0.00 0.00 0.00 0.00 0.00 0.00 0.00 0.00
0.00 0.00 0.00 0.00 0.01 0.02 0.03 0.02 0.03 0.02 0.01 0.00 0.00 0.00 0.00 0.01 0.02 0.04 0.03 0.04 0.05 0.06 0.08 0.09 0.09 0.08 0.07 0.07 0.06 0.05 0.03 0.03 0.02 0.01 0.01 0.00 0.00 0.00 0.00 0.00 0.01 0.01 0.00 0.00 0.00 0.00 0.00 0.00 0.00
0.00 0.00 0.00 0.01 0.03 0.08 0.09 0.04 0.02 0.01 0.00 0.00 0.00 0.00 0.00 0.00 0.01 0.02 0.02 0.03 0.03 0.05 0.05 0.06 0.06 0.05 0.05 0.05 0.04 0.03 0.03 0.03 0.02 0.01 0.01 0.00 0.00 0.00 0.00 0.00 0.00 0.00 0.00 0.00 0.00 0.00 0.00 0.00 0.00
0.00 0.00 0.02 0.06 0.11 0.16 0.10 0.04 0.01 0.00 0.00 0.00 0.00 0.00 0.00 0.00 0.01 0.01 0.03 0.04 0.04 0.04 0.05 0.06 0.06 0.04 0.03 0.04 0.04 0.03 0.03 0.02 0.01 0.01 0.01 0.00 0.00 0.00 0.00 0.00 0.00 0.00 0.00 0.00 0.00 0.00 0.00 0.00 0.00
0.00 0.00 0.01 0.05 0.06 0.06 0.05 0.04 0.01 0.00 0.00 0.00 0.00 0.00 0.00 0.00 0.00 0.01 0.02 0.03 0.03 0.03 0.04 0.05 0.05 0.03 0.03 0.03 0.04 0.04 0.03 0.01 0.01 0.01 0.00 0.00 0.00 0.00 0.00 0.00 0.00 0.00 0.00 0.00 0.00 0.00 0.00 0.00 0.00
0.00 0.00 0.00 0.01 0.01 0.02 0.03 0.03 0.03 0.01 0.00 0.00 0.00 0.00 0.00 0.00 0.00 0.00 0.01 0.01 0.02 0.02 0.03 0.03 0.04 0.04 0.04 0.04 0.05 0.04 0.02 0.02 0.02 0.01 0.00 0.00 0.00 0.00 0.00 0.00 0.00 0.00 0.00 0.00 0.00 0.00 0.00 0.00 0.00
0.00 0.00 0.00 0.00 0.01 0.04 0.06 0.06 0.07 0.06 0.01 0.00 0.00 0.00 0.00 0.00 0.00 0.00 0.01 0.01 0.01 0.01 0.02 0.04 0.05 0.07 0.06 0.06 0.04 0.02 0.02 0.01 0.02 0.01 0.00 0.00 0.00 0.00 0.00 0.00 0.01 0.00 0.00 0.00 0.00 0.00 0.00 0.00 0.00
0.00 0.00 0.00 0.00 0.00 0.02 0.07 0.09 0.09 0.06 0.01 0.01 0.00 0.00 0.00 0.00 0.00 0.00 0.00 0.00 0.01 0.01 0.01 0.02 0.03 0.04 0.05 0.05 0.05 0.04 0.02 0.02 0.01 0.01 0.01 0.00 0.00 0.00 0.00 0.01 0.01 0.01 0.01 0.00 0.00 0.00 0.00 0.00 0.00
0.01 0.01 0.00 0.01 0.01 0.00 0.02 0.03 0.02 0.02 0.01 0.00 0.00 0.00 0.00 0.00 0.00 0.00 0.00 0.00 0.00 0.00 0.01 0.01 0.02 0.02 0.03 0.03 0.03 0.03 0.04 0.04 0.03 0.02 0.02 0.02 0.01 0.01 0.01 0.01 0.02 0.01 0.01 0.01 0.01 0.01 0.01 0.00 0.00
MSLP
1008.99 1009.56 1010.15 1010.59 1010.79 1010.71 1010.36 1009.83 1009.26 1008.78 1008.51 1008.49 1008.69 1009.04 1009.41 1009.71 1009.85 1009.82 1009.67 1009.51 1009.43 1009.56 1009.94 1010.56 1011.36 1012.23 1013.04 1013.69 1014.13 1014.36 1014.42 1014.40 1014.38 1014.43 1014.59 1014.84 1015.15 1015.46 1015.73 1015.92 1016.02 1016.06 1016.07 1016.08 1016.12 1016.20 1016.29 1016.39 1016.45
1009.20 1009.79 1010.32 1010.67 1010.75 1010.54 1010.08 1009.46 1008.83 1008.33 1008.04 1008.01 1008.21 1008.55 1008.92 1009.23 1009.40 1009.42 1009.36 1009.30 1009.35 1009.61 1010.10 1010.80 1011.66 1012.55 1013.36 1013.99 1014.42 1014.63 1014.69 1014.67 1014.66 1014.72 1014.87 1015.11 1015.39 1015.66 1015.90 1016.06 1016.15 1016.20 1016.23 1016.27 1016.33 1016.41 1016.50 1016.56 1016.58
1009.45 1010.01 1010.45 1010.68 1010.62 1010.27 1009.70 1009.01 1008.35 1007.84 1007.57 1007.55 1007.76 1008.10 1008.47 1008.78 1008.98 1009.05 1009.07 1009.11 1009.28 1009.65 1010.23 1011.00 1011.89 1012.79 1013.59 1014.20 1014.62 1014.83 1014.91 1014.91 1014.93 1015.00 1015.15 1015.37 1015.61 1015.84 1016.03 1016.16 1016.25 1016.31 1016.38 1016.46 1016.56 1016.66 1016.74 1016.77 1016.74
1009.66 1010.15 1010.48 1010.56 1010.36 1009.89 1009.23 1008.52 1007.86 1007.38 1007.15 1007.18 1007.41 1007.76 1008.13 1008.44 1008.65 1008.77 1008.85 1008.98 1009.25 1009.70 1010.36 1011.18 1012.08 1012.96 1013.74 1014.34 1014.74 1014.96 1015.07 1015.11 1015.16 1015.26 1015.41 1015.60 1015.81 1015.99 1016.14 1016.25 1016.34 1016.42 1016.53 1016.66 1016.80 1016.93 1017.01 1017.02 1016.95
1009.76 1010.16 1010.35 1010.29 1009.96 1009.40 1008.71 1008.00 1007.40 1007.01 1006.85 1006.94 1007.21 1007.57 1007.93 1008.24 1008.45 1008.60 1008.73 1008.94 1009.28 1009.81 1010.51 1011.35 1012.25 1013.10 1013.84 1014.41 1014.80 1015.03 1015.17 1015.25 1015.35 1015.47 1015.63 1015.81 1015.99 1016.13 1016.25 1016.34 1016.42 1016.53 1016.68 1016.86 1017.05 1017.20 1017.29 1017.28 1017.18
1009.73 1010.00 1010.04 1009.85 1009.42 1008.82 1008.15 1007.51 1007.02 1006.74 1006.70 1006.86 1007.18 1007.55 1007.91 1008.19 1008.40 1008.56 1008.73 1008.98 1009.39 1009.96 1010.69 1011.54 1012.41 1013.23 1013.92 1014.45 1014.82 1015.05 1015.21 1015.33 1015.47 1015.63 1015.81 1015.99 1016.14 1016.26 1016.34 1016.41 1016.49 1016.62 1016.80 1017.01 1017.24 1017.42 1017.52 1017.50 1017.37
1009.54 1009.66 1009.57 1009.26 1008.77 1008.18 1007.57 1007.05 1006.70 1006.57 1006.66 1006.92 1007.28 1007.67 1008.01 1008.28 1008.46 1008.62 1008.81 1009.10 1009.54 1010.15 1010.89 1011.73 1012.57 1013.33 1013.97 1014.45 1014.79 1015.02 1015.20 1015.36 1015.54 1015.73 1015.94 1016.12 1016.27 1016.36 1016.42 1016.47 1016.54 1016.66 1016.85 1017.08 1017.32 1017.52 1017.62 1017.61 1017.48
1009.23 1009.20 1008.98 1008.59 1008.07 1007.52 1007.01 1006.64 1006.45 1006.48 1006.70 1007.05 1007.46 1007.85 1008.18 1008.42 1008.58 1008.73 1008.92 1009.23 1009.69 1010.32 1011.07 1011.88 1012.68 1013.40 1013.98 1014.42 1014.73 1014.95 1015.14 1015.33 1015.54 1015.78 1016.01 1016.21 1016.36 1016.45 1016.49 1016.51 1016.55 1016.65 1016.82 1017.03 1017.27 1017.46 1017.57 1017.57 1017.45
1008.85 1008.68 1008.36 1007.90 1007.39 1006.90 1006.50 1006.27 1006.24 1006.41 1006.74 1007.17 1007.62 1008.02 1008.33 1008.53 1008.67 1008.81 1009.00 1009.32 1009.79 1010.42 1011.16 1011.95 1012.71 1013.38 1013.92 1014.32 1014.61 1014.83 1015.02 1015.24 1015.49 1015.77 1016.04 1016.27 1016.44 1016.52 1016.54 1016.53 1016.54 1016.59 1016.71 1016.89 1017.09 1017.27 1017.38 1017.39 1017.31
1008.45 1008.18 1007.78 1007.29 1006.80 1006.36 1006.06 1005.95 1006.04 1006.32 1006.73 1007.21 1007.69 1008.09 1008.38 1008.57 1008.69 1008.81 1009.00 1009.31 1009.78 1010.40 1011.12 1011.89 1012.62 1013.26 1013.77 1014.15 1014.43 1014.66 1014.87 1015.12 1015.41 1015.73 1016.04 1016.31 1016.50 1016.60 1016.61 1016.58 1016.54 1016.53 1016.59 1016.70 1016.85 1017.00 1017.10 1017.13 1017.08
1008.10 1007.76 1007.31 1006.81 1006.33 1005.94 1005.71 1005.66 1005.82 1006.16 1006.62 1007.13 1007.61 1008.01 1008.30 1008.48 1008.60 1008.71 1008.89 1009.20 1009.65 1010.25 1010.95 1011.69 1012.40 1013.03 1013.53 1013.92 1014.22 1014.46 1014.71 1014.99 1015.31 1015.67 1016.03 1016.34 1016.57 1016.69 1016.71 1016.66 1016.59 1016.52 1016.50 1016.53 1016.62 1016.72 1016.81 1016.85 1016.84
1007.85 1007.47 1007.00 1006.49 1006.02 1005.64 1005.43 1005.41 1005.58 1005.93 1006.39 1006.90 1007.38 1007.79 1008.09 1008.29 1008.42 1008.53 1008.71 1008.99 1009.42 1009.98 1010.65 1011.37 1012.08 1012.71 1013.24 1013.66 1013.99 1014.28 1014.56 1014.88 1015.23 1015.63 1016.02 1016.38 1016.65 1016.81 1016.86 1016.81 1016.71 1016.59 1016.50 1016.46 1016.47 1016.52 1016.59 1016.65 1016.68
1007.71 1007.33 1006.85 1006.33 1005.85 1005.47 1005.23 1005.18 1005.32 1005.62 1006.06 1006.55 1007.04 1007.46 1007.80 1008.04 1008.20 1008.33 1008.50 1008.76 1009.15 1009.67 1010.30 1011.00 1011.71 1012.37 1012.95 1013.43 1013.83 1014.17 1014.49 1014.83 1015.21 1015.63 1016.05 1016.44 1016.75 1016.96 1017.05 1017.03 1016.93 1016.78 1016.64 1016.53 1016.48 1016.48 1016.52 1016.58 1016.64
1007.70 1007.31 1006.83 1006.32 1005.82 1005.40 1005.11 1004.98 1005.04 1005.28 1005.66 1006.13 1006.63 1007.10 1007.50 1007.80 1008.01 1008.18 1008.35 1008.59 1008.93 1009.40 1009.99 1010.67 1011.39 1012.10 1012.75 1013.31 1013.78 1014.18 1014.54 1014.90 1015.28 1015.69 1016.11 1016.52 1016.87 1017.13 1017.27 1017.30 1017.22 1017.08 1016.91 1016.76 1016.66 1016.61 1016.62 1016.68 1016.76
1007.75 1007.37 1006.90 1006.38 1005.87 1005.40 1005.04 1004.83 1004.79 1004.95 1005.27 1005.72 1006.24 1006.77 1007.25 1007.65 1007.94 1008.16 1008.34 1008.55 1008.84 1009.25 1009.80 1010.46 1011.20 1011.96 1012.69 1013.34 1013.90 1014.36 1014.75 1015.11 1015.46 1015.83 1016.22 1016.61 1016.97 1017.27 1017.48 1017.57 1017.55 1017.44 1017.28 1017.11 1016.97 1016.89 1016.87 1016.92 1017.01
1007.82 1007.45 1007.00 1006.49 1005.97 1005.47 1005.04 1004.74 1004.61 1004.68 1004.95 1005.38 1005.94 1006.54 1007.13 1007.63 1008.02 1008.30 1008.50 1008.70 1008.94 1009.29 1009.79 1010.43 1011.19 1012.01 1012.81 1013.56 1014.19 1014.70 1015.11 1015.44 1015.73 1016.03 1016.35 1016.70 1017.05 1017.37 1017.63 1017.80 1017.85 1017.80 1017.68 1017.52 1017.37 1017.26 1017.22 1017.25 1017.34
1007.85 1007.49 1007.07 1006.60 1006.10 1005.59 1005.13 1004.76 1004.54 1004.53 1004.75 1005.17 1005.76 1006.44 1007.13 1007.75 1008.24 1008.60 1008.84 1009.02 1009.23 1009.53 1009.98 1010.59 1011.36 1012.23 1013.11 1013.93 1014.63 1015.18 1015.58 1015.86 1016.07 1016.27 1016.50 1016.77 1017.09 1017.42 1017.72 1017.96 1018.09 1018.12 1018.06 1017.93 1017.78 1017.66 1017.60 1017.61 1017.69
1007.77 1007.45 1007.09 1006.70 1006.27 1005.80 1005.33 1004.92 1004.63 1004.55 1004.70 1005.10 1005.71 1006.45 1007.24 1007.97 1008.57 1009.01 1009.30 1009.49 1009.67 1009.92 1010.33 1010.92 1011.69 1012.58 1013.51 1014.40 1015.15 1015.73 1016.11 1016.33 1016.45 1016.53 1016.64 1016.82 1017.08 1017.40 1017.73 1018.03 1018.25 1018.36 1018.36 1018.28 1018.16 1018.03 1017.95 1017.95 1018.02
1007.56 1007.31 1007.07 1006.81 1006.50 1006.11 1005.68 1005.25 1004.91 1004.75 1004.83 1005.17 1005.77 1006.55 1007.41 1008.24 1008.94 1009.47 1009.81 1010.03 1010.19 1010.42 1010.78 1011.34 1012.09 1012.99 1013.96 1014.88 1015.66 1016.25 1016.61 1016.77 1016.79 1016.76 1016.76 1016.84 1017.03 1017.32 1017.68 1018.03 1018.32 1018.51 1018.59 1018.56 1018.47 1018.35 1018.27 1018.25 1018.31
1007.23 1007.10 1007.04 1006.97 1006.83 1006.57 1006.20 1005.78 1005.38 1005.13 1005.11 1005.37 1005.92 1006.69 1007.59 1008.49 1009.28 1009.89 1010.31 1010.56 1010.74 1010.94 1011.27 1011.78 1012.51 1013.39 1014.35 1015.28 1016.07 1016.66 1017.00 1017.11 1017.06 1016.94 1016.84 1016.83 1016.97 1017.23 1017.59 1017.98 1018.33 1018.60 1018.74 1018.77 1018.71 1018.61 1018.53 1018.50 1018.55
1006.81 1006.87 1007.05 1007.22 1007.29 1007.20 1006.92 1006.50 1006.04 1005.68 1005.53 1005.66 1006.10 1006.82 1007.71 1008.65 1009.52 1010.21 1010.71 1011.02 1011.23 1011.43 1011.72 1012.19 1012.86 1013.70 1014.62 1015.53 1016.31 1016.88 1017.21 1017.29 1017.20 1017.02 1016.86 1016.80 1016.89 1017.13 1017.49 1017.91 1018.31 1018.63 1018.84 1018.92 1018.90 1018.83 1018.75 1018.72 1018.77
1006.40 1006.70 1007.15 1007.60 1007.91 1007.98 1007.79 1007.38 1006.85 1006.35 1006.02 1005.99 1006.29 1006.90 1007.74 1008.69 1009.61 1010.39 1010.97 1011.36 1011.62 1011.83 1012.10 1012.52 1013.12 1013.88 1014.74 1015.59 1016.33 1016.89 1017.20 1017.28 1017.19 1017.00 1016.82 1016.74 1016.81 1017.04 1017.40 1017.84 1018.27 1018.64 1018.89 1019.02 1019.04 1019.00 1018.94 1018.92 1018.97
1006.07 1006.65 1007.39 1008.11 1008.64 1008.88 1008.77 1008.34 1007.72 1007.06 1006.54 1006.31 1006.42 1006.90 1007.66 1008.60 1009.55 1010.41 1011.08 1011.56 1011.88 1012.12 1012.38 1012.74 1013.26 1013.93 1014.69 1015.46 1016.15 1016.68 1016.99 1017.09 1017.02 1016.86 1016.71 1016.64 1016.72 1016.95 1017.32 1017.77 1018.22 1018.62 1018.91 1019.08 1019.14 1019.13 1019.10 1019.09 1019.15
1005.90 1006.75 1007.75 1008.71 1009.44 1009.80 1009.73 1009.28 1008.55 1007.73 1007.01 1006.57 1006.49 1006.82 1007.48 1008.37 1009.35 1010.27 1011.04 1011.61 1012.01 1012.29 1012.54 1012.86 1013.29 1013.85 1014.50 1015.18 1015.80 1016.29 1016.60 1016.73 1016.71 1016.62 1016.52 1016.50 1016.61 1016.86 1017.23 1017.68 1018.14 1018.55 1018.87 1019.07 1019.17 1019.19 1019.19 1019.22 1019.29
1005.93 1007.00 1008.21 1009.34 1010.19 1010.62 1010.57 1010.06 1009.23 1008.26 1007.36 1006.73 1006.47 1006.64 1007.20 1008.04 1009.02 1009.99 1010.84 1011.50 1011.97 1012.30 1012.57 1012.85 1013.20 1013.66 1014.20 1014.77 1015.32 1015.77 1016.09 1016.26 1016.30 1016.28 1016.26 1016.31 1016.46 1016.73 1017.11 1017.56 1018.01 1018.42 1018.75 1018.98 1019.11 1019.17 1019.21 1019.26 1019.36
1006.12 1007.34 1008.66 1009.87 1010.77 1011.21 1011.13 1010.57 1009.65 1008.56 1007.53 1006.75 1006.35 1006.39 1006.84 1007.61 1008.57 1009.57 1010.47 1011.21 1011.75 1012.14 1012.43 1012.69 1013.00 1013.37 1013.81 1014.30 1014.77 1015.19 1015.50 1015.71 1015.82 1015.88 1015.94 1016.06 1016.26 1016.56 1016.94 1017.38 1017.82 1018.22 1018.55 1018.79 1018.95 1019.05 1019.12 1019.21 1019.32
1006.41 1007.67 1009.00 1010.19 1011.05 1011.45 1011.32 1010.71 1009.74 1008.60 1007.49 1006.62 1006.12 1006.05 1006.41 1007.11 1008.02 1009.01 1009.93 1010.72 1011.33 1011.77 1012.10 1012.37 1012.65 1012.97 1013.35 1013.77 1014.19 1014.57 1014.89 1015.14 1015.31 1015.44 1015.58 1015.76 1016.01 1016.33 1016.72 1017.14 1017.56 1017.95 1018.27 1018.51 1018.69 1018.82 1018.93 1019.04 1019.18
1006.69 1007.89 1009.12 1010.19 1010.94 1011.25 1011.07 1010.44 1009.47 1008.34 1007.23 1006.34 1005.80 1005.67 1005.95 1006.56 1007.40 1008.33 1009.24 1010.03 1010.67 1011.17 1011.54 1011.85 1012.14 1012.46 1012.82 1013.20 1013.59 1013.96 1014.29 1014.56 1014.79 1014.99 1015.19 1015.43 1015.71 1016.05 1016.44 1016.85 1017.25 1017.61 1017.92 1018.17 1018.36 1018.51 1018.64 1018.78 1018.94
1006.85 1007.89 1008.93 1009.82 1010.41 1010.61 1010.38 1009.77 1008.86 1007.81 1006.80 1005.97 1005.45 1005.29 1005.49 1006.01 1006.74 1007.57 1008.40 1009.16 1009.81 1010.33 1010.76 1011.12 1011.47 1011.82 1012.19 1012.59 1012.98 1013.36 1013.70 1014.00 1014.27 1014.52 1014.77 1015.05 1015.37 1015.73 1016.12 1016.52 1016.90 1017.24 1017.54 1017.78 1017.98 1018.14 1018.30 1018.45 1018.61
1006.81 1007.64 1008.44 1009.10 1009.51 1009.60 1009.35 1008.79 1008.01 1007.12 1006.27 1005.57 1005.12 1004.97 1005.11 1005.52 1006.11 1006.80 1007.51 1008.19 1008.80 1009.33 1009.80 1010.23 1010.64 1011.06 1011.49 1011.93 1012.35 1012.75 1013.11 1013.44 1013.74 1014.03 1014.32 1014.64 1014.99 1015.36 1015.76 1016.15 1016.52 1016.85 1017.14 1017.38 1017.57 1017.74 1017.91 1018.07 1018.24
Thickness
5833 5835 5836 5830 5812 5796 5788 5816 5834 5832 5831 5837 5837 5831 5819 5807 5795 5780 5812 5827 5821 5811 5801 5795 5791 5788 5785 5782 5780 5778 5775 5773 5771 5770 5768 5767 5765 5764 5762 5761 5760 5759 5757 5756 5755 5754 5753 5752 5751
5837 5841 5836 5824 5803 5784 5795 5821 5825 5827 5834 5838 5835 5830 5820 5810 5814 5809 5815 5820 5816 5806 5799 5793 5789 5785 5782 5780 5778 5775 5773 5771 5769 5767 5766 5764 5763 5762 5760 5759 5758 5756 5755 5754 5752 5751 5750 5749 5749
5837 5841 5825 5817 5805 5801 5810 5827 5829 5836 5840 5834 5828 5827 5816 5804 5811 5812 5817 5818 5812 5803 5796 5789 5786 5782 5779 5777 5775 5773 5771 5769 5767 5765 5763 5762 5761 5759 5758 5757 5756 5754 5753 5752 5750 5749 5748 5747 5746
5835 5833 5825 5812 5808 5829 5835 5838 5840 5835 5831 5830 5825 5814 5812 5816 5815 5815 5817 5815 5807 5799 5792 5786 5782 5780 5777 5774 5772 5770 5768 5767 5765 5763 5761 5760 5758 5757 5756 5754 5753 5752 5750 5749 5748 5746 5745 5745 5744
5836 5822 5808 5804 5818 5838 5847 5847 5842 5830 5824 5824 5820 5802 5797 5813 5820 5817 5814 5810 5803 5797 5789 5782 5779 5777 5774 5772 5770 5768 5766 5764 5763 5761 5759 5757 5756 5754 5753 5752 5750 5749 5747 5746 5745 5744 5743 5742 5742
5823 5821 5802 5805 5826 5842 5847 5847 5839 5828 5821 5821 5816 5802 5793 5811 5812 5811 5811 5807 5803 5796 5787 5779 5776 5774 5771 5769 5767 5766 5764 5762 5760 5759 5757 5755 5753 5752 5751 5749 5748 5746 5745 5743 5742 5741 5740 5740 5739
5815 5811 5807 5822 5830 5834 5840 5846 5835 5823 5813 5814 5818 5799 5793 5803 5810 5811 5807 5804 5801 5794 5784 5778 5774 5771 5769 5767 5765 5764 5762 5760 5758 5756 5755 5753 5751 5750 5749 5747 5745 5743 5742 5741 5739 5739 5738 5738 5738
5830 5814 5810 5826 5827 5828 5841 5842 5839 5827 5816 5824 5821 5797 5783 5794 5806 5807 5803 5799 5796 5791 5784 5778 5774 5770 5767 5765 5763 5761 5760 5758 5756 5754 5753 5751 5750 5748 5747 5745 5743 5741 5740 5739 5738 5737 5736 5736 5736
5835 5807 5805 5823 5827 5830 5840 5834 5835 5837 5824 5820 5818 5808 5800 5802 5803 5796 5792 5790 5787 5785 5783 5780 5775 5770 5768 5765 5762 5759 5758 5756 5754 5753 5752 5750 5749 5747 5745 5744 5741 5740 5738 5738 5737 5736 5735 5735 5735
5827 5805 5815 5835 5837 5834 5836 5830 5831 5826 5814 5807 5803 5801 5802 5798 5793 5787 5782 5780 5778 5777 5779 5779 5776 5771 5769 5768 5762 5760 5758 5755 5754 5753 5751 5749 5748 5747 5745 5742 5740 5739 5737 5737 5736 5735 5735 5734 5735
5830 5819 5830 5838 5842 5838 5832 5831 5835 5820 5805 5803 5794 5789 5791 5789 5784 5781 5778 5776 5776 5776 5776 5775 5774 5770 5769 5766 5762 5761 5759 5755 5753 5752 5751 5750 5748 5746 5744 5742 5739 5738 5737 5736 5736 5735 5735 5735 5735
5829 5831 5835 5837 5842 5836 5831 5831 5826 5819 5811 5814 5807 5797 5789 5782 5778 5775 5771 5772 5771 5772 5771 5772 5770 5767 5766 5764 5762 5760 5758 5754 5751 5750 5750 5749 5747 5745 5743 5741 5739 5738 5737 5736 5735 5735 5734 5734 5734
5828 5831 5840 5843 5840 5838 5834 5827 5821 5815 5816 5814 5805 5795 5785 5780 5776 5774 5771 5769 5766 5765 5767 5766 5765 5762 5762 5760 5759 5759 5757 5753 5750 5748 5747 5746 5745 5743 5741 5738 5737 5737 5736 5736 5734 5734 5733 5732 5732
5834 5837 5838 5837 5836 5836 5828 5824 5816 5811 5814 5806 5797 5788 5783 5776 5771 5767 5763 5761 5760 5758 5758 5760 5759 5758 5757 5755 5754 5754 5753 5752 5750 5747 5745 5744 5742 5739 5738 5737 5736 5735 5734 5733 5732 5732 5732 5732 5731
5838 5826 5826 5829 5833 5835 5828 5810 5807 5810 5810 5799 5792 5784 5778 5770 5765 5759 5758 5754 5754 5752 5752 5754 5754 5753 5752 5751 5751 5752 5751 5751 5749 5745 5743 5741 5738 5737 5736 5736 5734 5733 5732 5732 5732 5731 5731 5731 5731
5827 5815 5804 5821 5831 5834 5818 5794 5807 5813 5805 5793 5787 5781 5772 5764 5761 5758 5754 5752 5751 5749 5749 5751 5753 5750 5748 5747 5748 5749 5749 5747 5745 5743 5740 5737 5736 5735 5735 5734 5732 5731 5731 5731 5730 5729 5729 5728 5728
5811 5802 5803 5816 5831 5832 5820 5801 5809 5814 5803 5790 5783 5778 5767 5758 5754 5755 5754 5751 5748 5747 5747 5748 5750 5747 5745 5744 5745 5746 5745 5744 5743 5740 5738 5735 5735 5734 5733 5732 5730 5730 5730 5730 5729 5726 5726 5724 5725
5801 5809 5813 5813 5826 5827 5816 5808 5811 5813 5804 5792 5783 5775 5764 5754 5749 5751 5751 5749 5747 5746 5745 5745 5745 5743 5742 5742 5742 5742 5742 5741 5740 5738 5736 5734 5733 5733 5732 5731 5729 5730 5729 5727 5726 5724 5725 5723 5723
5818 5814 5812 5819 5834 5824 5814 5810 5809 5810 5803 5791 5782 5773 5762 5754 5752 5750 5748 5746 5745 5743 5742 5741 5740 5740 5740 5739 5738 5736 5736 5738 5738 5737 5735 5734 5733 5732 5731 5731 5729 5728 5726 5725 5724 5723 5723 5722 5723
5818 5810 5810 5820 5831 5823 5814 5810 5813 5809 5801 5795 5784 5774 5765 5756 5750 5748 5745 5745 5743 5742 5741 5739 5738 5738 5738 5738 5739 5738 5738 5738 5738 5737 5734 5734 5732 5731 5731 5729 5729 5727 5725 5723 5723 5721 5719 5721 5722
5813 5810 5810 5810 5822 5826 5812 5796 5796 5800 5803 5797 5791 5781 5772 5761 5751 5746 5744 5743 5742 5740 5740 5740 5738 5738 5738 5739 5739 5738 5737 5736 5735 5733 5733 5733 5732 5731 5730 5729 5728 5727 5726 5722 5721 5720 5718 5716 5718
5805 5823 5819 5811 5802 5797 5801 5771 5777 5786 5790 5791 5788 5782 5774 5768 5759 5752 5747 5743 5743 5742 5742 5741 5740 5739 5739 5739 5739 5736 5733 5732 5734 5735 5734 5733 5732 5731 5730 5728 5727 5726 5725 5723 5721 5719 5719 5716 5715
5816 5827 5818 5808 5793 5779 5774 5762 5770 5787 5781 5786 5789 5786 5780 5774 5766 5758 5753 5749 5748 5747 5745 5742 5741 5740 5740 5740 5740 5738 5737 5737 5738 5737 5734 5733 5732 5732 5730 5729 5727 5725 5724 5722 5721 5719 5718 5717 5714
5828 5820 5812 5798 5773 5739 5747 5748 5764 5785 5791 5792 5792 5789 5784 5779 5772 5765 5761 5756 5753 5752 5748 5745 5742 5740 5741 5740 5740 5739 5738 5738 5737 5736 5733 5732 5732 5731 5730 5729 5726 5725 5723 5722 5720 5718 5717 5715 5714
5819 5797 5773 5754 5737 5734 5758 5753 5772 5801 5810 5805 5797 5793 5789 5784 5777 5770 5764 5759 5756 5754 5752 5749 5744 5742 5742 5741 5741 5740 5740 5739 5737 5736 5734 5733 5733 5731 5731 5730 5726 5724 5723 5721 5719 5717 5716 5714 5712
5810 5800 5769 5746 5746 5756 5764 5755 5778 5814 5816 5815 5807 5800 5793 5787 5781 5775 5770 5765 5761 5758 5756 5752 5748 5745 5743 5742 5741 5741 5741 5739 5738 5737 5737 5735 5736 5735 5733 5729 5726 5724 5722 5721 5718 5717 5715 5712 5710
5806 5803 5809 5783 5772 5763 5757 5762 5780 5799 5804 5807 5804 5798 5793 5789 5785 5779 5775 5770 5766 5763 5760 5757 5751 5747 5746 5744 5742 5741 5740 5739 5739 5738 5737 5737 5736 5735 5732 5729 5725 5723 5721 5719 5717 5715 5713 5711 5708
5820 5813 5800 5781 5757 5747 5751 5746 5746 5763 5783 5794 5798 5796 5795 5792 5789 5784 5779 5775 5772 5769 5765 5761 5755 5751 5748 5746 5743 5741 5740 5739 5739 5738 5736 5736 5735 5734 5730 5727 5724 5721 5719 5717 5714 5712 5711 5708 5706
5806 5802 5794 5787 5782 5755 5739 5741 5771 5772 5788 5794 5799 5800 5798 5795 5792 5787 5783 5779 5776 5772 5768 5761 5756 5752 5749 5747 5744 5743 5740 5740 5739 5738 5737 5735 5733 5731 5728 5724 5722 5719 5717 5715 5712 5710 5709 5706 5703
5806 5796 5790 5768 5767 5772 5760 5754 5791 5787 5797 5803 5803 5802 5800 5798 5796 5792 5787 5782 5777 5772 5768 5763 5759 5754 5751 5749 5746 5744 5741 5740 5737 5736 5736 5734 5731 5728 5726 5723 5720 5717 5715 5713 5710 5706 5706 5703 5700